Location: eljas
(40.1958°N, 6.8661°W)
Time: 20:21:28
(UTC+02:00)

ISS - All Passes

Search period start: 21 May 2018 00:00
Search period end: 31 May 2018 00:00
Orbit: 402 x 407 km, 51.6° (Epoch: 22 May)

Date Brightness Start Highest point End Pass type
(mag) Time Alt. Az. Time Alt. Az. Time Alt. Az.
21 May - 00:41:50 10° W 00:44:38 26° NNW 00:47:27 10° NNE visible
21 May - 02:20:44 10° NNW 02:22:00 12° N 02:23:16 10° NNE visible
21 May - 03:57:37 10° NNW 03:59:34 15° NNE 04:01:31 10° NE visible
21 May - 05:33:24 10° NW 05:36:38 54° NE 05:39:49 10° ESE visible
21 May - 07:10:45 10° W 07:12:48 16° SW 07:14:50 10° S daylight
21 May - 22:13:28 10° S 22:16:02 21° SE 22:18:35 10° E visible
21 May - 23:49:13 10° WSW 23:52:20 41° NNW 23:55:27 10° NE visible
22 May - 01:27:47 10° NW 01:29:30 13° NNW 01:31:12 10° NNE visible
22 May - 03:05:37 10° NNW 03:07:05 12° N 03:08:33 10° NE visible
22 May - 04:41:23 10° NW 04:44:21 31° NNE 04:47:19 10° E visible
22 May - 06:17:53 10° WNW 06:20:48 30° SW 06:23:41 10° SSE visible
22 May - 21:23:02 10° SSE 21:24:03 11° SE 21:25:04 10° ESE daylight
22 May - 22:56:50 10° WSW 23:00:05 75° NW 23:03:22 10° NE visible
23 May - 00:34:48 10° WNW 00:37:01 17° NNW 00:39:14 10° NNE visible
23 May - 02:13:25 10° NNW 02:14:33 11° N 02:15:41 10° NNE visible
23 May - 03:49:23 10° NNW 03:51:59 21° NNE 03:54:36 10° ENE visible
23 May - 05:25:28 10° WNW 05:28:42 60° SW 05:31:55 10° SE visible
23 May - 22:04:43 10° SW 22:07:55 54° SE 22:11:08 10° ENE daylight
23 May - 23:41:55 10° WNW 23:44:35 23° NNW 23:47:16 10° NNE visible
24 May - 01:20:50 10° NNW 01:22:00 11° N 01:23:10 10° NNE visible
24 May - 02:57:24 10° NNW 02:59:33 16° NNE 03:01:41 10° ENE visible
24 May - 04:33:15 10° NW 04:36:31 68° NE 04:39:45 10° ESE visible
24 May - 06:11:10 10° WSW 06:12:35 12° SW 06:14:00 10° SSW visible
24 May - 21:13:00 10° SSW 21:15:49 27° SE 21:18:38 10° ENE daylight
24 May - 22:49:12 10° W 22:52:13 34° NNW 22:55:15 10° NE visible
25 May - 00:27:54 10° NW 00:29:27 13° N 00:30:59 10° NNE visible
25 May - 02:05:24 10° NNW 02:07:02 13° N 02:08:41 10° NE visible
25 May - 03:41:09 10° NW 03:44:14 37° NNE 03:47:18 10° E visible
25 May - 05:17:54 10° WNW 05:20:34 23° SW 05:23:15 10° S night (unlit)
25 May - 20:21:57 10° SSE 20:23:46 14° SE 20:25:37 10° E daylight
25 May - 21:56:40 10° WSW 21:59:54 60° NW 22:03:09 10° NE daylight
25 May - 23:34:52 10° NW 23:36:55 15° NNW 23:38:58 10° NNE visible
26 May - 01:13:15 10° NNW 01:14:29 12° N 01:15:42 10° NNE visible
26 May - 02:49:06 10° NNW 02:51:52 24° NNE 02:54:36 10° E visible
26 May - 04:25:19 10° WNW 04:28:29 46° SW 04:31:37 10° SSE night (unlit)
26 May - 21:04:25 10° SW 21:07:40 70° SE 21:10:56 10° ENE daylight
26 May - 22:41:54 10° WNW 22:44:26 20° NNW 22:46:57 10° NNE visible
27 May - 00:20:47 10° NNW 00:21:53 11° N 00:23:00 10° NNE visible
27 May - 01:57:05 10° NNW 01:59:24 18° NNE 02:01:43 10° ENE visible
27 May - 03:33:01 10° NW 03:36:17 86° NE 03:39:32 10° SE visible
27 May - 20:12:30 10° SSW 20:15:30 34° SE 20:18:30 10° ENE daylight
27 May - 21:49:05 10° W 21:52:00 29° NNW 21:54:55 10° NE daylight
27 May - 23:27:54 10° NNW 23:29:18 12° N 23:30:41 10° NNE visible
28 May - 01:05:03 10° NNW 01:06:52 14° NNE 01:08:41 10° NE visible
28 May - 02:40:49 10° NW 02:43:59 45° NNE 02:47:08 10° ESE visible
28 May - 04:17:52 10° W 04:20:14 19° SW 04:22:36 10° S night (unlit)
28 May - 19:21:05 10° S 19:23:24 18° SE 19:25:42 10° E daylight
28 May - 20:56:26 10° WSW 20:59:37 48° NNW 21:02:49 10° NE daylight
28 May - 22:34:51 10° NW 22:36:43 14° NNW 22:38:35 10° NNE visible
29 May - 00:12:56 10° NNW 00:14:17 12° N 00:15:38 10° NNE visible
29 May - 01:48:43 10° NW 01:51:36 28° NNE 01:54:29 10° E visible
29 May - 03:25:05 10° WNW 03:28:07 36° SW 03:31:08 10° SSE night (unlit)
29 May - 20:04:03 10° SW 20:07:19 89° ESE 20:10:36 10° NE daylight
29 May - 21:41:48 10° WNW 21:44:10 18° NNW 21:46:32 10° NNE daylight
29 May - 23:20:34 10° NNW 23:21:40 11° N 23:22:46 10° NNE visible
30 May - 00:56:39 10° NNW 00:59:09 20° NNE 01:01:36 10° ENE visible
30 May - 02:32:39 10° NW 02:35:55 75° SW 02:39:09 10° SE visible
30 May - 19:11:57 10° SSW 19:15:05 44° SE 19:18:13 10° ENE daylight
30 May - 20:48:53 10° W 20:51:40 25° NNW 20:54:28 10° NNE daylight
30 May - 22:27:47 10° NNW 22:29:02 12° N 22:30:17 10° NNE visible
